Regional Weather Roundup
Issued by NWS Cleveland, OH

Home | Current Version | Previous Version | Text Only | Print | Product List | Glossary Off
Versions: 1 2 3 4 5 6 7 8 9 10 11 12 13 14 15 16 17 18 19 20 21 22 23 24 25 26 27 28 29 30 31 32 33 34 35 36 37 38 39 40 41 42 43 44 45 46 47 48 49 50

396
ASUS41 KCLE 221012
RWRCLE
OHIO REGIONAL WEATHER ROUNDUP
NATIONAL WEATHER SERVICE WILMINGTON, OH
600 AM EDT SAT JUL 22 2017

NOTE: "FAIR" INDICATES FEW OR NO CLOUDS BELOW 12,000 FEET WITH NO
SIGNIFICANT WEATHER AND/OR OBSTRUCTIONS TO VISIBILITY.

OHZ001>008-015>018-024>027-034-035-043-044-221100-
   NORTHWEST OHIO

CITY           SKY/WX    TMP DP  RH WIND       PRES   REMARKS
DEFIANCE       HVY RAIN N/A N/A N/A NW7       29.88R
FINDLAY        LGT RAIN  73  70  90 SE13      29.87F FOG
TOLEDO EXPRESS RAIN      72  72 100 S3        29.85F FOG
TOLEDO EXEC    LGT RAIN  74  73  97 SE6       29.86F FOG
LIMA           TSTM      71  70  96 W7        29.91R FOG
$$

OHZ009>014-019>023-028>033-038-089-221100-
   NORTHEAST OHIO

CITY           SKY/WX    TMP DP  RH WIND       PRES   REMARKS
CLE-HOPKINS    MOCLDY    76  69  79 S5        29.90F
CLE-LAKEFRONT  MOCLDY    76  64  66 SE8       29.87F
CUY CO. ARPT   NOT AVBL
LORAIN-ELYRIA  FAIR      72  65  78 S3        29.90S
ASHTABULA      FAIR      68  66  93 S5        29.93S
AKRON-CANTON   CLOUDY    75  72  90 S6        29.91F FOG
WOOSTER        CLOUDY    73  72  96 S6        29.92F FOG
MANSFIELD      FAIR      74  73  97 S6        29.92F
YOUNGSTOWN     CLOUDY    68  65  90 SE6       29.92F
$$

OHZ042-051>053-060>062-070>072-077>081-221100-
  SOUTHWEST OHIO

CITY           SKY/WX    TMP DP  RH WIND       PRES   REMARKS
CINC-COVINGTON CLOUDY    78  76  93 S9        29.90F
CINC-LUNKEN    FAIR      73  73 100 CALM      29.89F
HAMILTON       FAIR      75  74  96 CALM      29.90S
DAYTON         TSTM      70  68  93 NW6       29.95R FOG
WRIGHT-PAT AFB TSTM      75  75 100 W25G38    29.91R FOG
DAYTON GENERAL MOCLDY    75  73  93 S8        29.88F
WILMINGTON     FAIR      74  74 100 S8        29.89F
$$

OHZ036-037-039>041-045>050-054>059-063>069-073>076-082>088-221100-
  CENTRAL AND SOUTHEAST OHIO

CITY           SKY/WX    TMP DP  RH WIND       PRES   REMARKS
COLUMBUS       CLOUDY    74  74 100 SE5       29.89F
OSU AIRPORT    CLOUDY    74  74 100 SE8       29.89F
BOLTON FIELD   MOCLDY    73  72  99 S7        29.89F
RICKENBACK AFB CLOUDY    72  72 100 SE5       29.88F
NEWARK         MOCLDY    72  70  93 CALM      29.90F
MARION         TSTM      73  71  93 W7G17     29.94R VSB 1/2
LANCASTER      CLOUDY    70  70 100 E5        29.91F
ZANESVILLE     CLOUDY    72  70  93 S5        29.93S
NEW PHILLY     CLOUDY    74  73  97 S3        29.92F
$$




USA.gov is the U.S. government's official web portal to all federal, state and local government web resources and services.